Simultaneous Nadir Overpasses (SNOs) Predictions

Prediction of SNOs between GOES-17 and NOAA-19 Satellite Orbit:

Table of predicted SNOs for the next 14.0 days since TLE Epoch: 3/9/2024
Index Date Time (GOES-17) GOES-17 Lat,Lon NOAA-19 Lat,Lon Distance(km) Time Diff (sec)
1 03/09/2024 04:11:29 0.00,-104.69 0.00,-106.02 148.48 80
2 03/10/2024 03:56:31 0.01,-104.69 0.37,-102.98 194.16 80
3 03/12/2024 16:16:11 -0.01,-104.71 0.64,-107.67 337.73 80
4 03/13/2024 16:06:37 -0.01,-104.71 0.01,-104.69 3.21 80
5 03/14/2024 15:54:25 -0.01,-104.71 -0.68,-101.72 340.89 80
6 03/17/2024 04:14:09 0.01,-104.71 -0.36,-106.42 194.83 80
7 03/18/2024 03:59:16 0.01,-104.71 0.32,-103.45 144.23 80
8 03/19/2024 03:47:04 0.01,-104.71 1.00,-100.48 483.28 80
9 03/20/2024 16:18:52 -0.01,-104.72 0.77,-108.11 386.90 80
10 03/21/2024 16:06:40 -0.01,-104.73 0.07,-105.15 47.36 80
11 03/22/2024 15:57:06 -0.01,-104.74 -0.58,-102.17 292.37 80
